2023/05/17 00:00:00, 0.0,13.0
2023/05/17 00:10:00, 0.0,13.3
2023/05/17 00:20:00, 0.0,13.6
2023/05/17 00:30:00, 0.0,13.4
2023/05/17 00:40:00, 0.0,13.3
2023/05/17 00:50:00, 0.0,13.3
2023/05/17 01:00:00, 0.0,13.2
2023/05/17 01:10:00, 0.0,13.3
2023/05/17 01:20:00, 0.0,13.4
2023/05/17 01:30:00, 0.0,13.0
2023/05/17 01:40:00, 0.0,13.1
2023/05/17 01:50:00, 0.0,13.6
2023/05/17 02:00:00, 0.0,12.9
2023/05/17 02:10:00, 0.0,13.3
2023/05/17 02:20:00, 0.0,13.0
2023/05/17 02:30:00, 0.0,13.1
2023/05/17 02:40:00, 0.0,13.0
2023/05/17 02:50:00, 0.0,12.8
2023/05/17 03:00:00, 0.0,12.6
2023/05/17 03:10:00, 0.0,12.6
2023/05/17 03:20:00, 0.0,12.4
2023/05/17 03:30:00, 0.0,12.5
2023/05/17 03:40:00, 0.0,12.4
2023/05/17 03:50:00, 0.0,12.4
2023/05/17 04:00:00, 0.0,12.3
2023/05/17 04:10:00, 0.0,12.3
2023/05/17 04:20:00, 0.0,11.9
2023/05/17 04:30:00, 0.0,11.8
2023/05/17 04:40:00, 0.0,11.6
2023/05/17 04:50:00, 0.0,11.6
2023/05/17 05:00:00, 0.0,11.5
2023/05/17 05:10:00, 0.0,11.5
2023/05/17 05:20:00, 0.0,11.7
2023/05/17 05:30:00, 0.0,11.6
2023/05/17 05:40:00, 0.0,11.7
2023/05/17 05:50:00, 0.0,11.9
2023/05/17 06:00:00, 0.0,12.2
2023/05/17 06:10:00, 0.0,12.5
2023/05/17 06:20:00, 0.0,13.3
2023/05/17 06:30:00, 0.0,14.1
2023/05/17 06:40:00, 0.0,15.0
2023/05/17 06:50:00, 0.0,16.1
2023/05/17 07:00:00, 0.0,17.2
2023/05/17 07:10:00, 0.0,17.9
2023/05/17 07:20:00, 0.0,18.8
2023/05/17 07:30:00, 0.0,19.7
2023/05/17 07:40:00, 0.0,20.5
2023/05/17 07:50:00, 0.0,21.1
2023/05/17 08:00:00, 0.0,21.9
2023/05/17 08:10:00, 0.0,23.0
2023/05/17 08:20:00, 0.0,23.8
2023/05/17 08:30:00, 0.0,24.9
2023/05/17 08:40:00, 0.0,25.2
2023/05/17 08:50:00, 0.0,26.7
2023/05/17 09:00:00, 0.0,27.0
2023/05/17 09:10:00, 0.0,27.6
2023/05/17 09:20:00, 0.0,28.0
2023/05/17 09:30:00, 0.0,28.2
2023/05/17 09:40:00, 0.0,27.9
2023/05/17 09:50:00, 0.0,28.5
2023/05/17 10:00:00, 0.0,28.6
2023/05/17 10:10:00, 0.0,29.2
2023/05/17 10:20:00, 0.0,29.6
2023/05/17 10:30:00, 0.0,30.0
2023/05/17 10:40:00, 0.0,29.4
2023/05/17 10:50:00, 0.0,28.6
2023/05/17 11:00:00, 0.0,28.8
2023/05/17 11:10:00, 0.0,28.9
2023/05/17 11:20:00, 0.0,30.1
2023/05/17 11:30:00, 0.0,31.8
2023/05/17 11:40:00, 0.0,32.8
2023/05/17 11:50:00, 0.0,31.7
2023/05/17 12:00:00, 0.0,31.5
2023/05/17 12:10:00, 0.0,32.6
2023/05/17 12:20:00, 0.0,33.4
2023/05/17 12:30:00, 0.0,33.0
2023/05/17 12:40:00, 0.0,32.7
2023/05/17 12:50:00, 0.0,33.1
2023/05/17 13:00:00, 0.0,33.5
2023/05/17 13:10:00, 0.0,33.2
2023/05/17 13:20:00, 0.0,34.2
2023/05/17 13:30:00, 0.0,32.3
2023/05/17 13:40:00, 0.0,32.4
2023/05/17 13:50:00, 0.0,33.9
2023/05/17 14:00:00, 0.0,32.5
2023/05/17 14:10:00, 0.0,30.5
2023/05/17 14:20:00, 0.0,30.3
2023/05/17 14:30:00, 0.0,32.6
2023/05/17 14:40:00, 0.0,32.8
2023/05/17 14:50:00, 0.0,32.8
2023/05/17 15:00:00, 0.0,30.1
2023/05/17 15:10:00, 0.0,30.1
2023/05/17 15:20:00, 0.0,29.4
2023/05/17 15:30:00, 0.0,28.6
2023/05/17 15:40:00, 0.0,28.6
2023/05/17 15:50:00, 0.0,28.9
2023/05/17 16:00:00, 0.0,28.9
2023/05/17 16:10:00, 0.0,30.2
2023/05/17 16:20:00, 0.0,29.6
2023/05/17 16:30:00, 0.0,29.3
2023/05/17 16:40:00, 0.0,29.7
2023/05/17 16:50:00, 0.0,28.7
2023/05/17 17:00:00, 0.0,27.9
2023/05/17 17:10:00, 0.0,28.5
2023/05/17 17:20:00, 0.0,28.4
2023/05/17 17:30:00, 0.0,27.4
2023/05/17 17:40:00, 0.0,26.4
2023/05/17 17:50:00, 0.0,25.1
2023/05/17 18:00:00, 0.0,24.2
2023/05/17 18:10:00, 0.0,23.0
2023/05/17 18:20:00, 0.0,22.1
2023/05/17 18:30:00, 0.0,21.4
2023/05/17 18:40:00, 0.0,20.6
2023/05/17 18:50:00, 0.0,19.9
2023/05/17 19:00:00, 0.0,19.0
2023/05/17 19:10:00, 0.0,18.5
2023/05/17 19:20:00, 0.0,17.8
2023/05/17 19:30:00, 0.0,17.4
2023/05/17 19:40:00, 0.0,16.9
2023/05/17 19:50:00, 0.0,16.7
2023/05/17 20:00:00, 0.0,16.5
2023/05/17 20:10:00, 0.0,16.1
2023/05/17 20:20:00, 0.0,15.8
2023/05/17 20:30:00, 0.0,15.6
2023/05/17 20:40:00, 0.0,15.4
2023/05/17 20:50:00, 0.0,15.1
2023/05/17 21:00:00, 0.0,14.9
2023/05/17 21:10:00, 0.0,14.7
2023/05/17 21:20:00, 0.0,14.7
2023/05/17 21:30:00, 0.0,14.3
2023/05/17 21:40:00, 0.0,14.3
2023/05/17 21:50:00, 0.0,14.2
2023/05/17 22:00:00, 0.0,14.1
2023/05/17 22:10:00, 0.0,14.0
2023/05/17 22:20:00, 0.0,13.9
2023/05/17 22:30:00, 0.0,14.0
2023/05/17 22:40:00, 0.0,14.3
2023/05/17 22:50:00, 0.0,14.0
2023/05/17 23:00:00, 0.0,13.8
2023/05/17 23:10:00, 0.0,13.9
2023/05/17 23:20:00, 0.0,13.8
2023/05/17 23:30:00, 0.0,13.5
2023/05/17 23:40:00, 0.0,13.7
2023/05/17 23:50:00, 0.0,13.5
